Location: Unspecified
(48.5670°N, 0.0000°E)
Time: 11:53:24
(UTC+00:00)

Tiros 1 - Pass Details

Date: 23 October 2020
Orbit: 630 x 664 km, 48.4° (Epoch: 03 December)

Event Time Altitude Azimuth Distance (km) Brightness Sun altitude
Exits shadow 05:20:34 - 219° (SW) 2,627 9.9 -12.6°
Reaches altitude 10° 05:22:18 10° 212° (SSW) 2,001 9.4 -12.3°
Maximum altitude 05:26:25 33° 148° (SSE) 1,065 8.6 -11.6°
Drops below altitude 10° 05:30:32 10° 85° (E) 2,011 11.2 -10.9°
Sets 05:33:02 0° 76° (ENE) 2,923 12.0 -10.5°
